Zurück zum Katalog

COBE DEB

AktivSSO
NORAD 20324·DEBRIS·🇺🇸 United States

Gestartet Nov 18, 1989 von Vandenberg Space Force Base

Loading…

Nächste Überflüge (nächste 24 Stunden)

TLE

AktuellSource: Space-Track

Epoche: Sep 13, 2026, 19:17 UTC

1 20324U 89089C   26256.80351023  .00000479  00000-0  24130-3 0  9991
2 20324  98.6989 265.6066 0010625 242.7984 290.1228 14.20931881898111

Verfolge COBE DEB in Echtzeit mit AllMySat

Download on the App Store